Location: Most
(50.5133°N, 13.6207°E)
Time: 11:10:59
(UTC+01:00)

Oscar 11 - Pass Details

Date: 30 November 2022
Orbit: 611 x 621 km, 97.6° (Epoch: 28 January)

Event Time Altitude Azimuth Distance (km) Brightness Sun altitude
Rises 06:28:00 0° 359° (N) 2,893 10.3 -11.4°
Reaches altitude 10° 06:30:59 10° 337° (NNW) 1,981 9.2 -10.9°
Maximum altitude 06:33:25 15° 302° (WNW) 1,671 8.6 -10.6°
Enters shadow 06:34:11 14° 290° (WNW) 1,702 8.6 -10.5°
